Zurück zum Katalog

STARLINK-11724

AktivKommunikationVLEO
NORAD 64124·PAYLOAD·🇺🇸 United States

Gestartet May 24, 2025 von Cape Canaveral Space Force Station

Loading…

Nächste Überflüge (nächste 24 Stunden)

TLE

AktuellSource: CelesTrak SupGP

Epoche: Sep 14, 2026, 14:57 UTC

1 64124C 25111B   26257.62340278  .00044563  00000+0  34622-3 0  2579
2 64124  43.0003 274.8896 0001479 276.1214 131.0993 15.70809554    18

Verfolge STARLINK-11724 in Echtzeit mit AllMySat

Download on the App Store